Wind_Speed
24 23 23 23 22 22 22 22 22 21 21 21 21 21 21 21 22 22 22 22 22 22 22 22 22 21 21 21 21 22 22 22 23 23 23 23 23 24 24 24 23 23 23
24 23 23 24 23 22 22 22 22 22 22 22 22 22 22 22 23 23 23 23 24 24 24 23 23 22 23 23 23 23 23 23 24 24 23 24 24 24 24 24 24 24 24
25 25 25 25 24 24 23 23 24 24 24 24 23 23 23 23 23 24 24 25 25 25 26 25 25 25 25 24 24 24 25 25 25 25 25 25 25 25 25 25 25 25 25
27 26 27 26 26 25 24 24 24 25 25 25 24 23 23 23 23 24 25 25 25 25 25 26 26 26 26 25 25 25 25 25 25 26 26 25 25 25 25 26 26 26 25
29 28 28 27 27 26 25 25 25 25 25 24 23 23 23 23 23 23 24 24 24 25 26 27 27 27 27 26 26 26 26 26 26 27 27 26 25 25 25 26 26 26 26
29 29 29 28 28 27 26 25 25 25 24 23 22 23 23 23 23 24 24 24 25 25 26 27 28 28 28 28 27 27 27 27 27 27 27 26 26 26 26 26 26 26 26
29 29 29 29 28 27 26 26 25 25 23 23 23 23 23 24 24 25 25 25 26 27 26 26 27 28 29 28 29 29 28 28 28 28 28 27 26 26 26 27 27 27 26
29 29 29 29 29 28 27 26 25 25 25 25 24 23 24 24 25 25 25 26 27 27 28 27 27 28 28 28 28 29 29 29 29 29 29 28 27 27 26 27 27 27 27
28 29 29 29 28 28 27 26 26 26 26 26 25 25 25 25 25 25 25 26 26 27 27 28 28 28 28 28 28 29 29 29 30 30 29 28 27 27 27 27 27 27 27
28 28 29 28 28 27 26 26 27 27 26 26 25 25 25 26 26 26 26 26 27 27 27 27 28 28 28 28 28 28 28 28 29 29 29 29 28 28 28 28 27 27 27
29 29 29 29 28 27 27 27 26 26 26 26 26 26 26 27 27 27 27 27 27 27 28 28 28 28 29 29 29 29 28 29 29 29 29 29 29 28 28 27 28 28 27
30 30 30 29 28 27 27 26 26 26 27 27 27 27 28 28 28 28 27 28 29 28 27 27 28 28 29 29 29 29 29 29 29 29 29 29 29 29 28 28 28 28 28
29 29 29 28 27 27 27 26 26 26 27 27 27 28 28 29 29 28 28 28 27 28 28 28 28 28 28 29 29 30 30 30 29 29 29 29 29 29 29 29 29 29 29
27 27 27 27 27 27 27 27 26 27 27 27 28 28 28 28 28 28 27 27 27 27 27 27 27 27 28 29 29 29 30 29 28 28 29 29 29 29 29 30 30 29 29
26 26 26 27 28 28 28 27 27 27 28 28 28 28 28 27 27 27 27 28 28 28 27 27 27 27 27 28 29 28 28 28 27 28 28 28 28 28 29 29 30 30 29
27 27 28 28 28 29 28 28 29 29 28 28 28 28 28 27 27 27 27 28 28 28 28 28 28 28 28 28 28 28 28 27 27 28 28 28 29 29 29 29 30 29 29
28 28 28 29 29 30 29 29 29 29 28 27 28 28 28 27 27 28 28 28 29 28 28 28 28 27 27 27 27 27 27 27 27 27 27 28 28 29 29 30 30 29 30
28 29 29 30 30 30 29 29 28 28 27 27 28 28 28 28 28 28 28 28 28 27 27 26 26 26 27 27 26 26 26 26 26 26 27 27 28 28 29 30 30 30 30
29 29 29 29 29 29 28 28 28 28 28 28 28 28 28 28 27 27 27 27 27 27 26 26 26 26 26 26 26 25 25 25 25 26 27 27 27 28 28 29 29 29 29
28 28 28 28 28 28 29 28 28 28 27 27 27 28 28 28 27 27 28 28 27 26 25 25 25 25 25 26 25 25 25 25 25 26 26 27 27 27 28 28 29 29 29
28 28 27 27 27 27 27 27 27 27 26 27 27 27 28 29 29 28 28 27 26 25 25 25 25 25 24 25 25 26 26 26 26 26 26 27 27 27 28 28 28 28 28
26 26 27 27 26 26 26 26 26 26 27 27 28 28 28 28 28 28 28 27 26 26 26 25 25 25 25 25 25 25 26 26 27 27 27 27 27 27 27 27 27 27 27
25 25 25 25 25 25 25 25 25 25 26 26 27 27 27 27 27 27 27 27 27 26 26 26 26 26 26 27 26 26 26 27 28 27 27 27 27 27 27 27 27 27 28
24 24 25 25 25 26 26 25 25 25 25 25 25 25 25 26 27 27 27 27 27 27 27 27 26 27 27 27 27 27 28 27 27 28 27 28 28 28 28 28 28 28 29
23 24 24 24 25 25 25 25 25 24 24 24 25 25 25 25 26 26 27 28 27 27 27 27 27 27 27 27 27 28 27 27 26 27 28 28 28 28 29 29 29 29 29
22 23 23 23 23 23 23 23 23 24 23 24 24 24 24 25 25 26 26 26 27 28 28 27 27 27 27 27 27 28 27 27 27 27 27 27 28 28 29 29 29 30 29
Wind_Direction
262 260 261 264 266 267 269 272 275 275 274 276 276 276 274 274 272 271 271 270 269 270 271 271 272 272 273 273 275 276 276 275 276 276 276 277 278 279 280 279 275 275 277
260 260 263 264 264 266 269 270 272 273 272 273 274 275 275 274 273 273 271 270 270 270 271 270 271 272 273 272 273 274 274 275 276 276 277 278 278 278 281 279 276 276 276
259 260 263 265 265 266 267 269 270 272 273 273 274 275 275 274 273 272 271 270 269 269 270 270 271 271 272 272 272 272 273 275 276 278 279 279 279 279 279 280 277 276 276
258 260 264 264 265 266 268 269 270 273 275 275 274 274 275 275 274 272 271 270 270 269 270 271 271 271 271 272 271 271 273 275 275 277 279 280 280 280 279 280 278 275 275
258 260 263 264 265 266 267 269 270 273 274 274 273 275 275 275 276 275 273 272 271 271 271 270 271 271 272 272 270 271 272 273 274 277 278 278 279 280 279 280 279 275 275
257 259 262 263 263 265 265 267 269 271 270 270 272 274 275 276 277 277 275 274 273 273 273 270 270 270 272 272 271 271 271 271 273 275 277 278 278 279 279 279 279 278 277
257 259 260 261 263 264 264 266 268 268 267 269 272 273 275 276 276 276 275 275 275 273 274 273 271 269 271 272 271 270 271 272 273 275 276 278 278 277 278 279 279 280 280
258 259 259 259 261 263 264 264 266 267 268 269 272 273 275 275 276 277 275 274 275 276 275 273 272 272 272 271 271 271 270 271 272 273 275 276 276 277 278 278 279 278 278
258 260 263 261 261 263 263 264 266 268 268 269 271 272 273 274 276 277 278 276 276 276 275 273 272 272 272 271 271 271 270 270 270 272 273 273 273 275 277 278 279 279 278
259 260 262 261 263 262 262 264 267 269 269 268 270 272 272 273 275 276 277 277 276 276 276 274 272 272 271 271 272 272 271 269 268 269 271 272 274 276 278 277 278 280 279
260 260 261 262 262 262 263 265 266 268 268 268 269 271 272 274 275 277 277 278 278 277 276 274 273 273 273 271 272 272 270 268 268 269 270 272 273 276 277 277 277 278 280
259 260 261 260 261 262 262 263 266 268 268 269 269 270 272 274 275 276 277 278 279 278 277 275 275 274 273 273 271 270 269 268 268 268 270 272 274 275 276 276 277 278 278
259 260 261 259 258 260 262 264 265 267 268 269 271 272 273 274 274 275 276 277 278 280 278 277 276 275 275 274 271 269 269 269 268 268 271 273 275 275 275 275 276 277 277
259 260 259 258 258 260 263 263 264 266 268 270 271 272 273 273 273 274 276 277 278 280 279 279 278 278 277 276 273 271 269 270 271 271 271 272 274 274 274 276 276 276 276
259 260 259 259 261 262 262 263 264 267 269 270 270 270 271 272 274 275 275 278 279 280 280 279 279 278 277 277 275 271 271 273 274 272 272 272 273 275 275 277 277 276 276
259 260 261 261 264 264 264 265 266 268 270 269 270 270 270 272 273 275 276 278 279 280 280 279 278 277 277 277 275 272 273 274 273 274 273 273 274 275 275 277 278 276 276
260 261 261 263 264 266 267 266 267 269 269 270 270 269 269 270 272 274 276 278 279 279 279 278 278 277 277 277 277 275 275 274 274 275 275 274 275 276 275 276 277 276 276
261 263 265 265 266 267 267 267 270 271 271 271 272 271 270 271 274 276 276 277 277 277 277 276 276 276 275 276 276 275 275 275 275 274 275 276 276 276 276 275 276 277 277
262 264 265 267 267 267 267 268 269 271 271 271 272 272 272 273 273 274 275 276 275 275 276 274 275 275 275 275 275 274 275 276 276 274 274 276 276 276 276 276 277 278 279
262 263 265 266 266 267 267 268 269 270 270 271 272 272 272 272 273 274 274 275 275 274 274 274 275 275 274 274 273 272 274 276 277 276 277 277 277 276 276 276 278 278 279
262 264 265 266 266 266 267 267 268 268 269 269 271 271 271 271 272 274 274 273 273 273 273 274 275 275 274 274 274 274 274 275 276 276 276 277 277 277 277 278 279 279 279
259 259 261 262 264 265 266 268 269 269 268 269 270 270 271 273 274 275 275 273 271 270 272 273 274 274 273 273 274 274 275 276 277 275 274 275 276 277 277 277 278 280 281
261 261 261 261 263 265 267 270 272 272 272 272 272 272 272 273 274 275 275 272 270 271 272 272 272 273 274 274 275 276 276 277 278 276 275 275 275 276 276 276 278 279 280
261 262 262 263 265 266 267 269 271 273 273 274 275 275 273 272 272 272 272 271 270 269 271 272 272 273 274 275 276 277 278 277 276 275 276 276 275 275 276 277 278 279 280
260 261 263 265 266 267 268 269 271 272 273 274 276 276 275 273 273 273 273 272 271 270 270 271 271 272 274 276 277 278 279 278 276 276 277 276 275 275 275 276 277 279 280
262 261 261 262 264 267 269 270 272 272 273 275 276 276 276 276 274 274 274 272 271 271 272 271 272 273 274 274 276 277 277 275 276 277 277 277 276 275 274 275 277 279 278
Height
5828 5829 5829 5829 5828 5828 5828 5828 5828 5827 5826 5826 5825 5824 5824 5823 5823 5822 5822 5822 5822 5822 5822 5822 5822 5821 5821 5820 5820 5819 5819 5818 5818 5817 5817 5816 5815 5814 5813 5812 5812 5811 5811
5821 5822 5822 5822 5822 5822 5822 5822 5821 5821 5820 5820 5819 5818 5817 5817 5816 5816 5816 5816 5815 5815 5815 5815 5815 5815 5814 5814 5813 5813 5812 5812 5811 5811 5810 5810 5809 5808 5807 5806 5805 5805 5804
5814 5814 5815 5815 5815 5815 5815 5815 5815 5814 5814 5813 5812 5811 5810 5810 5809 5809 5808 5808 5808 5808 5808 5808 5808 5807 5807 5807 5806 5806 5806 5805 5805 5804 5804 5803 5802 5801 5800 5799 5798 5798 5797
5806 5807 5808 5808 5808 5808 5808 5808 5807 5807 5807 5806 5805 5804 5803 5802 5802 5801 5801 5801 5801 5800 5800 5800 5800 5799 5799 5799 5799 5799 5799 5798 5798 5797 5796 5796 5795 5794 5793 5792 5791 5791 5790
5799 5799 5800 5800 5800 5801 5801 5800 5800 5800 5799 5798 5798 5797 5796 5795 5795 5794 5794 5793 5793 5793 5792 5792 5791 5791 5791 5791 5791 5791 5791 5791 5790 5790 5789 5788 5788 5787 5786 5785 5784 5783 5783
5791 5791 5792 5792 5793 5793 5793 5793 5793 5792 5792 5791 5791 5790 5789 5789 5788 5787 5787 5786 5785 5785 5784 5784 5784 5783 5783 5783 5783 5783 5783 5783 5783 5782 5781 5781 5780 5779 5778 5777 5777 5776 5776
5783 5783 5784 5784 5785 5785 5785 5786 5785 5785 5785 5784 5784 5783 5782 5782 5781 5780 5779 5778 5778 5777 5776 5776 5776 5775 5775 5775 5775 5775 5775 5774 5774 5774 5773 5773 5772 5771 5771 5770 5769 5768 5767
5775 5775 5776 5776 5777 5777 5778 5778 5778 5778 5778 5777 5777 5776 5775 5774 5774 5773 5771 5771 5770 5769 5769 5768 5767 5767 5767 5766 5766 5766 5766 5766 5766 5766 5766 5765 5764 5764 5763 5762 5761 5760 5759
5767 5767 5768 5768 5769 5769 5770 5770 5770 5770 5770 5769 5769 5769 5768 5767 5766 5765 5764 5763 5762 5761 5760 5760 5759 5759 5759 5758 5758 5758 5758 5757 5757 5757 5757 5757 5756 5755 5754 5754 5752 5752 5751
5759 5759 5760 5761 5761 5761 5762 5762 5762 5762 5762 5762 5762 5761 5761 5760 5759 5758 5756 5755 5754 5754 5753 5752 5751 5750 5750 5749 5749 5749 5749 5749 5749 5748 5748 5748 5747 5747 5746 5745 5744 5743 5742
5750 5751 5752 5752 5753 5754 5754 5754 5754 5754 5754 5754 5754 5754 5753 5752 5751 5750 5749 5748 5746 5745 5744 5743 5742 5742 5741 5740 5740 5740 5740 5740 5739 5740 5740 5739 5739 5738 5738 5737 5736 5735 5734
5741 5742 5743 5744 5745 5745 5746 5746 5746 5746 5746 5746 5746 5745 5745 5744 5743 5742 5741 5740 5739 5737 5736 5735 5734 5733 5732 5732 5731 5731 5731 5730 5730 5731 5730 5730 5730 5730 5729 5728 5728 5727 5726
5733 5734 5735 5735 5736 5737 5737 5738 5738 5738 5738 5738 5737 5737 5737 5736 5735 5734 5733 5732 5731 5729 5728 5726 5725 5725 5724 5723 5723 5722 5721 5721 5721 5721 5721 5721 5721 5721 5720 5720 5719 5718 5717
5725 5726 5726 5727 5728 5729 5729 5730 5730 5730 5729 5729 5729 5728 5728 5727 5726 5726 5725 5723 5722 5721 5720 5718 5717 5717 5716 5715 5714 5713 5713 5713 5712 5712 5712 5712 5712 5712 5711 5711 5710 5709 5709
5718 5718 5719 5719 5720 5720 5721 5721 5721 5721 5720 5720 5720 5719 5719 5719 5718 5717 5716 5715 5714 5713 5712 5710 5710 5709 5708 5707 5706 5705 5705 5704 5704 5704 5704 5703 5703 5703 5703 5702 5701 5701 5700
5709 5710 5711 5711 5711 5712 5712 5712 5712 5712 5711 5711 5710 5710 5710 5710 5709 5708 5708 5707 5706 5705 5704 5703 5702 5701 5700 5699 5698 5697 5697 5696 5696 5695 5695 5695 5695 5694 5694 5693 5692 5692 5691
5701 5702 5702 5703 5703 5703 5703 5703 5703 5703 5702 5702 5702 5702 5702 5701 5701 5700 5699 5698 5697 5696 5695 5694 5693 5692 5692 5691 5690 5689 5689 5689 5688 5687 5687 5686 5686 5685 5685 5684 5683 5683 5682
5693 5693 5693 5694 5694 5694 5694 5694 5694 5694 5694 5694 5694 5693 5693 5693 5692 5691 5691 5690 5689 5688 5687 5686 5685 5684 5684 5683 5682 5681 5681 5681 5680 5679 5679 5678 5678 5677 5676 5675 5675 5674 5673
5684 5685 5685 5685 5685 5685 5685 5686 5686 5686 5685 5685 5685 5684 5684 5684 5683 5683 5682 5681 5680 5680 5679 5678 5677 5676 5675 5675 5674 5674 5673 5673 5672 5671 5671 5670 5669 5669 5668 5667 5666 5665 5664
5675 5676 5677 5677 5677 5677 5677 5677 5677 5677 5677 5677 5676 5676 5676 5675 5675 5674 5674 5673 5672 5671 5671 5670 5669 5668 5668 5667 5666 5666 5665 5665 5664 5663 5663 5662 5661 5660 5659 5658 5658 5657 5655
5666 5667 5668 5668 5668 5669 5669 5669 5669 5669 5668 5668 5668 5668 5667 5667 5667 5666 5665 5664 5664 5663 5663 5662 5661 5661 5660 5659 5659 5658 5657 5657 5656 5655 5654 5654 5653 5652 5651 5650 5649 5648 5647
5657 5658 5659 5659 5660 5660 5661 5661 5660 5660 5660 5660 5659 5659 5659 5658 5658 5657 5656 5656 5656 5655 5655 5654 5653 5653 5652 5652 5651 5650 5649 5648 5648 5647 5646 5645 5644 5643 5642 5641 5640 5639 5638
5649 5650 5651 5651 5652 5652 5652 5652 5652 5651 5651 5651 5650 5650 5650 5649 5649 5648 5648 5647 5647 5647 5646 5646 5645 5645 5644 5643 5642 5642 5641 5640 5639 5638 5638 5637 5636 5635 5634 5633 5632 5630 5629
5641 5642 5642 5643 5644 5644 5644 5644 5644 5643 5643 5642 5642 5641 5641 5640 5640 5640 5639 5638 5638 5638 5638 5637 5637 5636 5635 5635 5634 5633 5632 5631 5630 5629 5629 5628 5627 5626 5626 5624 5623 5622 5620
5633 5634 5634 5635 5635 5635 5636 5636 5636 5635 5635 5634 5634 5633 5632 5632 5631 5631 5630 5630 5629 5629 5629 5628 5628 5627 5627 5626 5625 5624 5623 5622 5621 5621 5620 5619 5618 5618 5617 5616 5614 5613 5611
5625 5626 5626 5627 5627 5628 5628 5628 5628 5627 5627 5626 5626 5625 5624 5623 5623 5622 5621 5621 5621 5620 5620 5620 5619 5618 5618 5617 5616 5615 5614 5614 5613 5612 5611 5610 5609 5608 5608 5607 5606 5604 5603